Weather Roundup
Issued by NWS Springfield, MO

Home | Current Version | Previous Version | Text Only | Print | Product List | Glossary On
Versions: 1 2 3 4 5 6 7 8 9 10 11 12 13 14 15 16 17 18 19 20 21 22 23 24 25 26 27 28 29 30 31 32 33 34 35 36 37 38 39 40 41 42 43 44 45 46 47 48 49 50
000
NZUS99 KSGF 281007
HRRSGF

HOURLY WEATHER
NATIONAL WEATHER SERVICE SPRINGFIELD MO
500 AM CDT MON JUL 28 2014

......SGF CWA......

CITY           SKY/WX    TMP DP  RH WIND       PRES   REMARKS
SPRINGFIELD    CLEAR     61  56  83 N7        30.14R
JOPLIN         CLEAR     62  58  86 N6        30.16R
WEST PLAINS    CLEAR     64  57  78 NW6       30.11R
ROLLA          CLEAR     62  56  80 NW8       30.08R
OSAGE BEACH    CLEAR     64  55  72 CALM      30.11R
BRANSON        CLEAR     64  57  77 NW5       30.15R

......SURROUNDING SGF CWA......

CITY           SKY/WX    TMP DP  RH WIND       PRES   REMARKS
CHANUTE        CLEAR     61  57  87 N5        30.16S
PARSONS        CLEAR     62  57  83 CALM      30.17R
COFFEYVILLE    CLEAR     64  59  83 NE3       30.15R HAZE
EMPORIA        CLEAR     60  57  89 W3        30.19R
GROVE OK       CLEAR     68  61  77 CALM      30.16R
ROGERS AR      CLEAR     65  61  87 CALM      30.17R
SILOAM SPRINGS CLEAR     66  55  68 NE5       30.16R
HARRISON AR    CLEAR     65  59  81 NW5       30.14R
NEAR YELLVILLE CLEAR     66  59  77 NW3       30.11R

......KANSAS AND MISSOURI......

CITY           SKY/WX    TMP DP  RH WIND       PRES   REMARKS
KANSAS CTY INT CLEAR     60  56  86 N6        30.16R
DOWNTOWN KC    CLEAR     66  57  72 N6        30.15R
COLUMBIA       CLEAR     62  57  83 NW8       30.09R
SEDALIA        CLEAR     63  57  81 NW8       30.13R
ST JOSEPH      CLEAR     60  56  86 N3        30.18R
ST LOUIS       CLEAR     66  59  78 NW6       30.03R
SPIRIT OF STL  CLEAR     65  58  78 NW8       30.03R
KIRKSVILLE     CLEAR     61  57  87 NW6       30.12R
WICHITA        PTCLDY    68  56  65 NE3       30.19R
TOPEKA         CLEAR     64  58  80 N7        30.18S
OLATHE         CLEAR     64  57  78 N6        30.16R

......TENNESSEE......

CITY           SKY/WX    TMP DP  RH WIND       PRES   REMARKS
MEMPHIS        CLEAR     77  62  59 N10       30.02R
NASHVILLE      CLEAR     69  61  75 NW3       29.97R

......ARKANSAS.......

CITY           SKY/WX    TMP DP  RH WIND       PRES   REMARKS
FAYETTEVILLE   CLEAR     61  61 100 CALM      30.15R
FT SMITH       PTCLDY    75  65  70 N3        30.09R
LITTLE ROCK    PTCLDY    76  63  64 NW7       30.05R

......OKLAHOMA.......

CITY           SKY/WX    TMP DP  RH WIND       PRES   REMARKS
TULSA          PTCLDY    70  62  76 N3        30.13R
PONCA CITY     CLEAR     67  59  75 NE6       30.16S
MCALESTER      MOCLDY    74  68  81 N3        30.11R
OKLAHOMA CITY  MOCLDY    76  65  68 NE7       30.16R

......IOWA............

CITY           SKY/WX    TMP DP  RH WIND       PRES   REMARKS
DES MOINES     PTCLDY    63  58  83 N7        30.14R
QUAD CITIES    MOCLDY    64  55  72 N8        30.05R

......ILLINOIS........

CITY           SKY/WX    TMP DP  RH WIND       PRES   REMARKS
QUINCY         CLEAR     61  59  93 NW7       30.06R
CHICAGO        PTCLDY    61  48  62 N10       29.97R



USA.gov is the U.S. government's official web portal to all federal, state and local government web resources and services.